Regional Weather Roundup
Issued by NWS Newport/Morehead, NC

Current Version | Previous Version | Graphics & Text | Print | Product List | Glossary On
Versions: 1 2 3 4 5 6 7 8 9 10 11 12 13 14 15 16 17 18 19 20 21 22 23 24 25 26 27 28 29 30 31 32 33 34 35 36 37 38 39 40 41 42 43 44 45 46 47 48 49 50
000 ASUS42 KMHX 041125 RWRMHX WEATHER ROUNDUP FOR EASTERN NORTH CAROLINA NATIONAL WEATHER SERVICE NEWPORT/MOREHEAD CITY NC 600 AM EST SUN DEC 04 2016 NOTE: "FAIR" INDICATES FEW OR NO CLOUDS BELOW 12,000 FEET WITH NO SIGNIFICANT WEATHER AND/OR OBSTRUCTIONS TO VISIBILITY NCZ015>017-031-032-045>047-102-103-041200- NORTH COAST CITY SKY/WX TMP DP RH WIND PRES REMARKS EDENTON CLOUDY 41 36 81 CALM 30.28R ELIZABETH CITY CLOUDY 42 35 76 N9 30.26S KITTY HAWK CLOUDY 47 38 70 N6 30.23S MANTEO CLOUDY 46 38 73 N5 30.26R $$ NCZ045>047-081-094-103-104-041200- CENTRAL COAST CITY SKY/WX TMP DP RH WIND PRES REMARKS FRISCO CLOUDY 49 39 68 N8 30.24R $$ NCZ095-097-098-100-101-041200- SOUTHERN COAST CITY SKY/WX TMP DP RH WIND PRES REMARKS BEAUFORT CLOUDY 47 38 71 N5 30.26R CEDAR ISLAND NOT AVBL JACKSONVILLE CLOUDY 45 37 73 N5 30.26R PINEY ISLAND CLOUDY N/A N/A N/A NE10 30.25R WILMINGTON CLOUDY 46 37 71 N5 30.26R $$ NCZ011>013-027>030-043-044-078>080-089-090>093-098-041200- COASTAL PLAIN CITY SKY/WX TMP DP RH WIND PRES REMARKS AHOSKIE CLOUDY 38 32 78 CALM 30.28S CLINTON LGT RAIN 43 40 86 CALM 30.28R ELIZABETHTOWN DRIZZLE 44 38 80 CALM 30.27R GOLDSBORO MOCLDY 43 35 71 NE3 30.25S GREENVILLE CLOUDY 41 36 81 N3 30.28S HAVELOCK CLOUDY 47 36 65 N7 30.26R KENANSVILLE CLOUDY 45 36 70 CALM 30.27R KINSTON N/A 43 36 76 CALM 30.27S NEW BERN CLOUDY 44 35 70 N6 30.27R RICHLANDS CLOUDY 44 36 73 NE3 30.27R ROCKY MOUNT CLOUDY 41 32 70 NE7 30.27F WASHINGTON N/A 40 35 81 N3 30.27S WHITEVILLE CLOUDY 46 38 74 N3 30.25S $$ AMZ130-135-150-152-154-156-158-170-250-252-270-ANZ085-086-088-633-658-670-041200- MARINE OBSERVATIONS STATION/POSITION TIME TEMP WIND PRES WAVE SWELL AIR SEA DIR/SP/G HT/PER HT/PER (UTC) (F) (DEG/KT/KT) (MB) (FT/S) (FT/S) CHESAPEAKE LIGHT NOT AVBL 64 E VA BEACH 1050 50 60 360/ 16/ 17 1023.2 5/ 7 3/ 7 DUCK 1100 48 55 360/ 11/ 14 1023.7 2 E DUCK NOT AVBL OREGON INLET 1100 48 52 350/ 8/ 13 1024.1 13E OREGON INLT 1100 60 N/A 5/ 6 3/ 6 HATTERAS CG 1100 49 56 10/ 13/ 18 1023.4 DIAMOND BUOY 1050 54 75 20/ 14/ 19 1023.1 5/ 9 5/ 9 CAPE LOOKOUT 1100 49 10/ 9/ 10 1024.1 BEAUFORT LAB 1100 47 55 20/ 5/ 7 1023.5 30 SE NEW RVR IN 1108 54 70 40/ 8/ 14 1024.3 30 SE NEW RVR IN NOT AVBL 27 SE WRIGHTSVLE 1108 55 69 40/ 12/ 19 1023.5 5 SE WRIGHTSVLE 1108 51 63 50/ 12/ 17 1023.9 225 S CAPE HAT 1050 64 73 60/ 10/ 14 1021.2 5/10 5/10 41 SE CHARLESTON 1050 62 74 50/ 8/ 14 1022.0 3/ 8 2/ 8 $$

USA.gov is the U.S. government's official web portal to all federal, state and local government web resources and services.